Theta_e
317 319 320 320 321 324 326 328 328 326 323 318 320 322 321 322 321 321 324 328 333 334 334 333 333 331 333 337 337 338 337 339 339 338 337 340 340 339 340 341 341 340 338 338 338 338 338 338 338 338 338 337 333 333 336 336 336 336 336 336 335 335 335 336 336 336 336 336 336 336 335 335 335 333 330 327 321 317 315 319 325 328 330 332 334 333 333 333 332 332 332 332 332 331 330 330 328
316 319 319 320 322 326 328 328 327 322 320 318 321 323 321 322 321 326 333 333 336 333 333 333 333 334 334 334 335 338 339 337 338 339 339 339 340 339 340 341 341 339 337 338 339 339 339 338 337 338 337 335 334 335 336 335 335 335 335 335 335 335 335 336 336 336 336 335 334 333 331 328 326 321 316 312 309 309 308 309 313 318 322 326 328 329 329 330 330 331 330 329 330 330 330 329 329
316 319 319 321 324 327 328 329 326 318 316 317 320 324 320 323 329 334 335 334 334 329 330 334 333 334 333 335 335 338 340 336 336 337 337 338 339 338 340 342 339 337 337 338 339 339 339 336 335 335 334 334 335 335 335 334 335 335 335 336 335 336 336 336 336 335 335 334 332 326 320 316 312 309 308 309 312 316 316 313 310 311 315 319 322 324 323 324 325 325 328 329 328 329 329 328 328
315 318 319 323 327 328 330 331 328 319 315 317 320 321 322 329 333 332 329 329 327 323 329 334 335 334 333 336 334 336 337 335 336 336 337 336 336 337 339 341 338 336 337 339 340 338 335 331 331 332 333 334 334 333 333 334 335 335 335 335 336 336 336 336 335 334 333 332 329 323 318 316 313 310 310 312 317 322 324 322 317 313 310 313 322 326 322 321 321 317 319 324 326 328 327 327 328
315 318 320 324 329 329 331 331 329 322 318 320 319 320 325 330 329 328 328 329 327 326 332 335 335 334 334 334 333 335 332 334 337 335 336 335 335 337 338 340 339 337 337 340 338 334 331 330 332 333 335 334 334 333 334 334 333 334 334 334 335 335 335 335 334 333 333 332 329 326 324 324 323 320 316 315 317 321 323 323 323 321 316 313 320 324 320 318 320 316 316 319 322 324 324 324 325
316 320 322 325 327 327 330 329 326 323 323 324 321 322 326 327 328 329 330 331 330 330 332 333 335 335 335 333 330 329 326 331 335 331 333 334 335 336 336 338 338 336 337 339 336 334 334 334 335 336 335 335 334 334 334 333 332 333 334 334 334 334 333 333 333 333 333 330 328 327 327 328 328 326 324 322 320 320 320 320 321 322 321 319 319 321 319 318 321 322 322 322 321 322 322 322 323
318 323 325 328 327 327 331 328 325 325 324 325 324 324 325 326 327 329 330 330 330 330 331 333 333 334 335 332 329 326 322 324 327 326 327 330 333 336 335 336 336 336 337 338 336 335 335 335 335 335 335 334 334 333 333 332 332 333 334 334 334 333 333 332 332 331 330 327 326 327 328 329 328 328 327 326 324 324 324 323 322 322 321 319 319 319 319 319 322 323 323 324 324 323 323 323 323
318 323 326 330 331 330 332 329 327 328 324 325 325 324 325 324 324 327 331 330 331 331 331 332 331 335 332 328 330 325 320 320 321 322 324 326 329 333 335 335 334 335 337 337 336 336 335 335 335 335 335 334 333 332 332 332 333 333 333 334 334 333 331 329 327 326 325 324 324 326 326 326 325 324 324 323 324 325 326 326 326 325 324 322 322 321 321 320 321 321 322 324 325 325 325 324 324
320 324 326 329 332 330 330 330 328 328 327 328 327 326 324 320 323 330 331 331 331 330 329 330 331 334 331 327 327 323 320 318 318 320 323 324 324 330 334 334 334 334 335 336 336 336 335 335 335 335 334 333 332 331 330 331 333 334 334 334 333 332 329 326 325 324 324 325 324 324 324 322 321 321 321 320 321 322 324 327 328 327 327 326 326 326 325 325 323 323 325 326 326 326 326 326 326
322 324 328 331 331 329 328 330 328 328 329 330 329 328 325 322 328 331 331 331 331 331 328 327 330 331 329 327 325 322 319 316 317 319 320 321 321 327 331 331 333 333 333 336 336 336 335 334 334 335 334 333 333 331 329 328 329 330 331 332 332 331 329 327 327 328 328 329 328 328 328 327 326 326 326 325 325 326 327 328 328 328 328 328 328 328 328 328 327 327 327 328 327 327 327 327 327
322 324 327 330 328 326 327 329 329 329 328 329 328 327 328 328 331 330 330 331 329 330 325 324 331 329 326 325 323 321 317 315 315 316 318 318 319 324 328 329 331 332 332 335 336 335 335 334 334 334 333 334 334 332 330 329 327 326 327 328 329 329 329 329 330 331 330 330 329 330 330 330 330 330 330 329 329 329 329 329 328 328 328 329 328 328 328 328 328 328 328 329 328 328 328 328 328
323 324 327 328 326 326 327 330 329 330 330 329 329 325 326 328 330 329 330 330 328 330 323 321 327 327 328 326 323 320 317 314 313 315 316 317 317 320 326 329 330 331 331 333 336 335 335 334 334 334 334 333 333 332 331 331 329 327 327 327 328 329 330 330 330 328 328 327 327 327 328 328 328 328 328 329 329 328 327 326 326 327 328 328 328 328 329 328 328 328 328 328 329 329 329 329 329
323 325 327 328 328 329 329 331 330 332 331 327 326 322 322 324 325 326 326 325 326 327 320 316 320 326 327 325 321 317 315 313 313 315 315 316 315 317 324 327 328 329 331 333 334 333 333 331 331 332 332 332 330 329 329 330 329 329 330 330 331 331 330 328 327 326 326 326 325 325 325 326 326 326 326 326 326 325 324 324 324 324 325 326 326 326 327 326 327 326 326 327 328 328 327 327 327
322 325 326 327 329 330 329 331 330 332 331 325 322 319 319 320 320 321 322 322 319 318 317 312 317 326 324 325 322 314 312 311 312 314 315 315 314 318 323 324 326 327 329 330 329 327 327 324 322 323 326 327 327 326 327 328 328 329 331 331 332 330 329 327 326 326 326 325 325 325 325 325 325 325 325 325 325 325 324 324 324 323 323 324 323 323 323 323 324 325 325 325 326 326 325 325 325
320 325 325 327 328 329 329 331 330 333 331 323 319 318 317 317 317 317 318 319 314 313 315 312 313 321 319 320 319 310 308 309 310 313 314 314 315 321 323 322 324 324 326 328 327 327 326 324 323 324 324 323 324 326 327 328 329 329 330 331 331 329 328 327 326 326 326 326 325 326 326 326 326 326 326 326 325 325 325 325 324 324 323 323 324 323 323 323 323 323 323 323 324 324 324 324 324
319 323 325 325 327 327 329 330 330 333 329 321 318 318 317 315 315 315 314 315 313 310 312 310 308 312 310 310 310 306 306 307 309 312 312 313 317 321 321 321 323 324 324 325 326 328 328 327 328 330 328 324 325 328 329 329 329 329 331 331 331 329 329 328 326 327 326 326 326 326 326 326 327 326 326 325 325 325 325 325 325 324 324 324 324 324 324 323 323 322 322 322 322 322 323 323 324
319 323 324 323 325 327 327 330 330 331 325 320 319 319 318 316 314 313 313 313 312 309 308 307 306 306 305 304 305 304 304 304 306 310 311 312 315 317 317 316 319 320 322 322 324 325 326 326 327 329 330 329 328 329 330 329 329 330 330 331 331 330 329 328 327 328 328 328 327 326 326 326 327 327 326 325 325 325 324 325 325 325 325 324 324 324 324 324 324 323 323 323 323 322 321 323 323
319 323 322 321 324 325 325 329 328 326 323 320 320 319 319 318 316 314 314 313 311 310 308 307 306 304 304 303 303 303 302 302 305 308 310 310 311 312 312 311 312 313 316 319 322 323 324 324 325 327 328 329 329 328 329 329 329 329 330 330 330 329 328 328 328 329 328 328 327 326 326 326 326 326 326 325 325 326 325 325 325 326 325 324 324 325 324 324 324 323 323 323 323 323 322 324 324
319 323 322 322 324 323 322 326 325 324 323 320 319 318 318 318 316 314 313 312 311 311 309 307 306 304 303 302 301 302 301 302 304 306 307 307 308 309 309 309 308 308 310 313 316 318 321 323 324 326 326 326 327 327 327 327 327 327 327 327 327 327 328 328 328 328 327 327 326 326 326 326 326 325 324 324 325 325 326 326 326 326 325 324 324 325 324 324 324 322 322 322 322 322 323 324 324
318 321 321 322 323 322 322 324 324 322 320 317 315 313 313 313 314 313 312 310 307 306 306 305 304 303 302 301 300 300 300 301 303 304 305 305 305 306 306 306 306 306 307 309 311 313 317 321 324 325 325 325 325 325 325 325 325 325 325 325 325 325 325 326 326 326 326 326 326 325 325 325 325 324 323 323 323 323 324 324 325 326 325 325 325 325 325 324 324 324 324 323 322 323 324 324 323
317 318 321 322 321 322 321 321 319 318 316 314 313 312 310 309 310 312 314 314 308 303 302 302 301 301 300 300 300 299 299 300 301 302 303 303 303 303 303 303 304 304 305 307 308 310 312 316 320 323 324 324 324 323 323 324 324 324 324 323 324 324 324 324 324 324 324 325 325 324 324 323 322 321 322 322 322 322 321 322 322 323 323 323 324 323 323 323 323 324 324 324 324 324 324 324 324
317 317 319 320 319 320 318 316 315 315 315 314 313 312 309 306 306 307 310 311 305 301 301 300 300 299 299 299 299 299 299 299 299 301 302 302 301 301 302 302 302 303 304 304 305 307 309 311 314 317 318 318 320 320 321 323 322 322 322 322 322 322 322 321 322 322 322 322 322 322 321 321 320 319 320 320 319 319 318 318 317 317 318 319 319 318 319 319 319 320 322 323 323 324 324 323 323
317 316 316 318 317 316 315 313 313 313 314 313 311 309 307 306 304 303 303 303 301 300 300 300 300 299 299 299 299 299 299 299 299 299 300 300 300 299 300 300 300 301 302 302 303 305 307 308 310 311 312 313 314 315 316 318 318 317 318 319 319 318 317 318 318 318 318 319 319 319 318 317 317 316 317 316 315 315 314 313 312 312 312 313 314 314 314 315 315 315 316 318 318 320 321 317 317
317 316 315 315 314 313 312 311 311 311 311 310 309 308 308 307 305 302 301 300 300 300 300 300 299 299 299 298 299 299 299 299 299 299 299 299 298 298 299 299 299 300 300 301 301 302 304 305 305 307 309 310 311 312 313 313 313 313 314 314 315 314 314 315 315 314 315 315 316 317 315 314 313 314 314 312 311 311 309 308 308 308 307 308 309 309 310 311 311 311 311 312 311 311 311 307 307
315 314 312 311 311 310 309 309 309 309 308 308 307 307 306 306 305 302 301 300 299 300 300 300 299 298 298 298 298 298 298 299 299 299 298 298 298 299 299 299 299 299 299 300 300 300 301 302 303 305 308 309 310 311 312 312 312 312 313 313 313 312 312 312 311 311 312 311 312 313 313 311 310 311 310 307 306 305 304 304 304 304 303 303 304 304 306 307 307 306 307 306 303 302 302 300 301
313 312 311 310 309 309 309 309 308 308 308 308 307 306 306 305 305 303 301 301 300 300 300 299 299 298 297 297 298 297 298 298 299 299 298 298 298 299 299 299 299 299 299 299 300 300 300 300 301 303 306 307 308 310 311 310 310 310 310 309 308 307 307 306 306 306 307 307 307 307 308 307 306 306 304 302 301 300 299 300 300 300 299 299 300 301 302 304 303 302 301 299 297 297 297 296 297
311 310 310 309 308 308 309 309 309 308 308 308 308 307 306 306 307 304 301 300 300 300 299 299 298 298 297 297 297 297 297 297 298 298 298 298 298 298 298 298 299 299 299 299 299 299 299 299 299 300 302 303 303 305 306 305 304 304 303 302 301 300 299 299 299 300 300 301 302 302 303 302 301 300 300 298 297 296 296 295 295 296 296 296 297 297 298 299 299 297 296 295 294 295 294 294 295
309 310 309 308 308 308 309 309 309 309 308 308 308 307 305 304 305 303 301 300 300 300 299 299 298 297 297 297 297 297 297 297 297 297 297 297 297 297 297 297 297 298 298 298 298 298 298 298 298 298 298 298 298 298 299 298 298 297 297 296 296 295 294 294 295 295 295 295 297 297 298 298 297 296 296 295 294 293 293 292 293 293 292 293 293 294 294 294 295 294 294 293 293 293 293 293 294
310 311 310 310 309 309 309 309 310 310 310 309 310 313 307 303 303 301 300 300 299 300 299 299 298 297 297 296 296 297 297 296 296 296 296 296 295 295 295 295 296 297 297 297 297 297 297 297 298 297 297 296 296 296 295 295 294 293 293 293 293 292 292 292 292 292 292 292 293 293 293 294 294 293 293 292 292 291 291 291 291 291 291 291 291 291 292 292 292 292 293 293 292 293 293 292 293
313 312 312 313 313 311 308 308 310 310 310 308 312 318 309 302 302 301 300 300 299 300 299 299 299 298 297 297 296 296 296 296 296 296 295 295 295 294 294 294 294 295 295 295 296 296 296 296 296 297 296 296 295 294 294 293 293 292 291 291 291 291 291 291 291 291 290 290 291 291 291 291 291 291 291 291 291 291 291 291 291 291 290 290 291 291 291 291 291 291 291 293 293 292 292 292 293
314 314 315 316 317 313 307 307 309 310 310 308 312 316 308 302 301 300 300 300 299 299 299 299 299 298 298 297 297 296 296 296 295 295 295 295 294 294 294 293 293 294 294 294 294 295 295 295 295 295 296 295 294 293 292 292 291 291 291 291 290 290 291 291 291 290 291 290 290 290 291 291 291 291 291 290 290 290 290 290 290 290 290 290 290 290 290 290 291 291 291 291 292 292 292 292 292
315 318 320 318 317 313 308 306 307 309 310 309 314 313 306 302 300 300 300 300 299 299 299 298 298 298 298 298 297 296 296 296 295 294 294 294 294 293 293 293 292 292 293 293 294 294 294 294 294 294 294 294 293 292 291 291 291 290 290 290 290 290 290 290 291 290 290 290 290 290 290 290 290 290 290 290 290 290 290 290 290 290 290 290 290 290 290 290 290 291 291 291 292 292 291 291 291
318 320 321 318 315 313 311 308 305 307 309 309 312 310 305 302 300 299 299 299 299 298 298 298 298 298 298 297 297 296 296 296 295 294 293 293 293 292 292 292 291 292 292 292 293 293 294 294 294 293 293 293 293 291 291 291 291 290 290 290 290 290 290 290 290 290 290 290 290 290 290 290 290 290 290 290 290 290 289 289 289 289 289 289 289 289 289 289 289 291 291 291 291 292 291 291 291
321 320 319 316 314 314 313 310 306 307 308 308 308 307 304 302 300 299 298 298 298 298 298 298 298 297 297 297 297 296 296 295 295 294 293 293 292 292 292 291 290 291 291 291 292 292 292 293 293 293 292 291 291 291 290 290 290 290 290 290 290 290 290 290 289 289 289 289 289 289 289 289 289 290 290 290 289 289 289 289 289 289 289 289 289 289 289 289 289 290 291 291 291 291 291 291 291
320 319 318 315 313 313 312 309 307 307 308 308 307 305 303 301 299 298 297 298 298 298 298 298 297 297 297 297 296 296 295 295 294 293 292 292 292 291 291 291 290 290 290 290 291 292 292 292 292 292 292 291 290 290 290 290 290 290 290 290 290 290 290 290 289 289 289 289 289 289 289 289 289 289 289 289 289 288 288 288 288 288 288 288 289 289 289 289 288 289 290 290 291 291 291 290 290
318 317 316 314 311 309 307 306 305 306 307 306 307 305 302 300 299 298 297 297 298 297 297 298 297 297 297 296 296 295 294 294 293 292 292 291 291 291 291 291 290 289 289 290 290 291 291 291 291 291 291 291 290 290 290 290 290 290 290 290 290 289 289 289 289 289 289 288 288 288 289 288 288 288 288 288 288 288 288 287 287 287 288 288 288 288 288 288 288 288 289 290 290 291 291 290 290
314 314 313 311 309 307 306 305 304 305 305 303 304 304 301 300 298 297 297 297 298 298 298 298 296 296 296 296 296 295 294 294 293 292 292 291 291 290 290 290 290 290 289 289 289 290 290 291 290 290 290 290 290 290 290 290 290 290 290 290 289 289 289 289 289 288 288 288 288 288 288 288 288 288 288 287 287 287 287 287 287 287 287 288 288 287 287 287 287 288 289 290 290 290 291 290 289
311 311 310 309 307 306 305 305 304 304 305 302 302 302 301 299 298 297 297 298 299 298 297 298 296 296 296 295 295 295 294 294 293 293 292 292 291 290 290 290 290 290 288 288 288 289 289 290 290 290 290 290 290 290 290 290 290 290 290 289 289 289 289 289 288 288 287 287 287 288 287 287 287 287 287 287 287 287 287 287 287 287 287 287 288 288 287 288 288 288 289 289 290 290 290 290 289
310 310 310 308 307 306 305 304 303 304 305 303 302 303 301 299 298 297 297 297 297 296 296 296 296 296 295 295 295 294 294 294 293 293 293 292 291 291 290 290 289 289 288 288 288 288 289 289 289 289 289 289 289 289 289 289 289 289 289 289 289 289 288 288 287 287 287 287 287 287 287 287 287 287 287 287 286 286 286 286 287 287 286 286 287 288 288 288 288 288 288 289 289 289 290 290 289
311 310 310 309 308 310 308 304 303 303 304 303 304 305 302 300 300 299 298 297 296 296 295 295 295 295 295 294 294 294 293 294 293 293 293 292 292 291 291 290 289 288 288 288 288 288 288 288 288 288 288 288 289 289 289 288 288 288 288 288 288 288 288 287 288 288 287 287 287 287 287 287 287 287 287 286 286 286 286 286 286 286 286 286 287 288 288 288 288 288 288 288 288 289 289 289 289
312 311 311 310 308 308 307 304 304 305 305 305 307 310 308 304 303 302 300 298 297 296 295 295 295 294 295 294 293 294 294 294 293 293 294 293 292 292 291 290 289 289 289 288 287 288 288 288 288 288 288 288 288 288 288 288 288 288 288 289 289 289 289 289 289 289 288 287 287 287 287 287 287 287 286 286 286 286 286 286 285 286 286 286 287 288 288 288 288 288 288 288 288 288 289 289 289
311 309 309 309 307 306 305 306 309 310 310 308 308 317 316 307 306 306 303 301 299 298 297 296 295 294 294 294 294 294 294 294 294 294 294 293 292 292 292 291 290 290 289 288 288 288 288 288 288 288 288 288 288 288 288 288 288 288 288 290 290 290 291 290 289 288 288 287 287 287 287 287 286 286 286 286 286 286 285 285 285 285 285 286 286 287 287 288 288 287 287 287 288 288 288 289 289
312 307 306 306 307 307 307 309 313 314 314 308 305 314 319 311 309 308 305 303 302 301 299 298 296 295 295 294 294 294 294 294 295 295 294 293 293 292 292 292 290 290 289 288 288 288 288 288 288 288 288 288 288 288 288 288 287 288 288 288 288 289 290 289 288 287 287 287 287 287 287 287 286 286 286 286 286 286 286 286 285 285 285 285 286 286 287 288 287 287 286 286 287 287 288 288 288
310 305 304 306 308 309 309 311 313 311 311 308 304 309 318 317 311 305 302 303 304 303 302 300 298 297 296 295 295 295 294 294 294 295 294 293 293 293 292 292 290 289 288 288 288 288 288 288 287 288 288 288 288 288 288 287 287 287 287 287 287 288 288 288 287 287 287 286 287 287 287 287 287 287 287 286 286 286 286 286 286 285 285 285 285 286 287 287 287 286 286 286 287 287 287 288 288
307 304 304 305 306 308 311 312 312 310 312 313 307 306 316 321 310 302 302 305 307 307 306 304 300 298 297 296 295 295 294 295 295 295 294 294 293 293 292 292 290 289 288 288 288 287 287 287 288 288 288 288 287 287 287 287 287 287 286 286 287 288 287 287 287 287 287 286 287 287 287 287 287 287 287 287 287 286 286 286 286 285 285 285 285 285 286 286 285 285 285 286 287 287 287 287 287
305 304 305 305 305 308 311 313 312 312 315 314 306 304 312 319 312 306 306 307 310 310 309 306 303 300 298 296 296 295 295 295 295 295 294 294 294 293 292 291 290 289 288 288 288 288 288 288 288 288 287 287 287 287 287 287 287 287 287 287 287 287 287 287 287 287 287 287 287 287 287 287 287 287 287 287 286 286 286 286 285 285 285 285 285 285 285 285 286 286 286 286 286 286 286 287 287
305 306 307 308 310 311 312 312 312 314 315 309 303 301 307 314 314 311 310 308 309 310 309 306 303 301 299 297 297 296 295 295 295 295 294 294 294 293 292 291 290 290 289 288 288 288 288 288 287 287 287 287 287 288 287 287 287 287 287 287 287 287 287 287 287 287 287 287 287 287 287 287 287 286 286 286 286 286 286 285 285 285 285 285 286 286 286 286 286 286 286 286 286 286 286 287 287
308 309 310 312 313 312 312 312 312 314 314 306 301 300 304 311 313 311 309 307 305 307 308 305 303 302 300 298 297 296 295 295 295 295 295 295 294 293 293 292 291 290 289 289 289 288 288 288 288 288 288 288 288 288 288 288 287 287 287 287 287 287 287 286 286 286 287 287 287 287 287 287 287 287 287 287 287 287 286 286 286 286 286 286 286 286 286 286 286 286 286 286 286 286 286 287 287
310 311 312 314 314 313 315 314 312 313 310 303 300 301 305 310 310 307 306 306 304 304 305 305 304 303 300 298 297 297 297 296 295 295 296 295 295 294 294 293 292 291 290 289 289 289 288 288 288 288 289 289 288 288 288 288 288 288 287 287 287 287 286 286 286 286 287 287 287 287 287 287 287 287 288 288 288 288 287 287 287 287 287 287 287 287 287 286 286 286 286 286 286 286 286 286 287
310 311 312 314 314 314 315 312 310 312 308 301 299 302 308 311 308 305 303 303 302 301 302 303 302 302 301 299 298 298 297 297 296 296 297 296 296 295 294 294 293 291 290 290 289 289 289 289 289 289 289 289 289 289 288 288 288 288 288 287 287 287 286 287 286 287 287 287 287 287 287 288 288 288 288 288 289 289 288 288 287 287 287 287 287 287 287 286 286 286 286 286 286 286 286 286 286
306 305 308 311 311 314 315 312 312 312 307 302 301 304 310 311 306 303 301 300 299 298 299 300 300 299 299 298 298 298 297 297 297 297 298 297 296 295 295 293 292 291 291 290 290 290 290 290 290 289 290 290 290 289 289 289 289 289 288 288 288 287 287 287 287 288 288 288 288 288 288 288 288 289 289 289 289 289 289 288 288 287 287 287 287 287 286 286 286 286 286 286 286 286 286 286 286
304 302 306 308 306 306 306 304 304 305 307 306 304 306 307 305 302 299 298 298 298 298 298 299 300 299 299 298 298 298 297 297 297 297 298 297 296 295 294 293 292 292 291 291 292 292 292 292 292 291 291 291 291 290 290 290 290 290 290 290 289 289 288 288 289 290 290 290 290 290 289 290 289 289 290 289 289 289 289 289 288 288 287 287 287 287 287 286 286 286 286 286 286 286 286 286 286
304 303 305 303 299 300 302 301 298 300 309 308 302 306 306 303 302 299 298 299 298 299 299 299 301 301 300 300 299 299 298 298 298 298 298 298 297 295 294 293 293 293 292 292 293 294 295 294 294 293 293 293 292 292 292 292 292 292 292 292 292 291 290 290 290 291 291 291 291 291 291 291 290 290 290 290 289 289 289 289 289 288 288 287 287 287 287 286 286 286 286 286 286 286 286 286 286
304 305 302 298 297 298 302 305 301 302 309 304 299 304 305 304 305 301 300 301 300 300 300 299 300 301 300 301 301 300 300 299 299 298 298 298 297 296 295 294 294 294 294 294 294 295 295 295 295 295 294 294 294 294 293 293 293 293 293 293 293 292 292 292 292 291 291 291 291 291 291 291 291 291 290 290 289 289 289 289 288 288 287 287 286 287 286 286 286 286 286 286 286 286 286 286 286
302 302 298 298 302 303 302 303 303 303 304 300 298 299 299 301 304 302 301 302 301 300 300 300 301 301 301 302 302 301 300 300 299 298 299 298 297 296 296 295 295 295 295 295 295 295 296 296 296 296 296 296 295 295 295 294 294 294 294 293 293 292 292 292 292 292 291 291 291 291 291 291 291 291 290 289 289 289 288 288 288 287 286 286 286 286 286 286 286 286 286 286 286 286 286 286 286
300 300 297 297 300 301 300 298 300 302 299 297 298 298 298 300 300 300 300 300 300 300 300 300 301 301 302 301 302 302 301 301 300 300 300 300 299 298 297 296 296 296 296 295 296 296 297 297 296 296 296 296 296 296 296 295 295 295 294 294 293 293 293 292 292 292 291 291 291 291 291 290 290 290 290 289 289 288 288 287 287 286 286 286 286 286 286 286 286 286 286 286 286 286 286 285 285
299 300 299 297 295 295 296 295 295 298 299 298 298 298 298 298 298 299 300 299 299 299 299 300 300 300 300 300 301 301 301 301 301 300 301 300 300 299 298 297 297 296 297 297 297 297 297 297 297 297 297 296 296 296 296 295 295 295 294 294 294 293 293 292 292 291 290 290 290 290 291 290 290 290 289 289 288 287 287 286 286 286 285 285 285 285 286 286 286 286 286 286 286 285 285 285 285
296 298 298 297 296 296 299 298 293 293 297 297 297 298 298 298 297 298 298 299 299 298 298 299 300 299 299 299 300 299 299 300 300 300 301 300 300 299 298 297 297 296 297 297 297 297 297 297 297 297 296 296 296 295 295 294 294 293 293 293 293 293 292 292 291 290 290 290 290 290 290 290 289 289 288 288 287 287 286 286 285 285 285 285 285 285 285 285 286 285 285 285 285 285 285 285 285
Wind_Speed
7 7 7 7 6 4 3 3 2 2 2 2 3 2 3 3 2 2 5 4 3 6 7 9 8 7 6 9 12 12 11 8 5 4 2 4 5 2 3 2 5 5 6 8 9 11 12 13 14 13 12 11 11 13 13 12 11 10 9 10 10 10 10 10 10 11 13 13 13 13 12 11 10 9 9 9 8 8 7 5 5 5 5 6 7 7 6 6 6 6 6 5 5 5 5 6 6
6 6 6 6 4 3 2 1 2 3 3 4 3 1 3 1 1 5 8 7 8 8 8 11 12 13 13 13 12 11 12 9 7 4 3 7 5 4 6 1 4 7 9 11 12 11 11 12 13 13 12 12 13 12 11 10 10 10 9 10 10 10 10 10 11 12 13 13 13 12 11 9 9 9 10 11 11 11 10 8 6 5 4 4 4 5 5 5 6 6 7 6 6 6 6 6 6
5 5 5 4 2 2 1 2 3 3 4 5 4 2 1 3 7 10 11 12 11 6 5 8 10 9 8 12 10 9 8 7 8 5 3 11 8 9 7 3 5 11 11 12 13 12 11 10 13 13 13 13 13 11 11 11 10 10 9 10 10 10 10 11 12 12 13 13 12 11 10 10 10 11 12 13 14 14 14 13 11 9 7 6 6 6 7 7 6 7 7 7 6 7 7 8 8
4 4 4 4 3 2 3 2 2 3 4 4 4 3 2 7 11 10 9 7 5 1 3 7 8 7 9 14 8 6 7 5 9 9 3 12 12 12 4 7 7 12 12 11 12 12 13 12 14 14 14 14 14 13 12 11 9 10 9 10 10 11 11 12 12 12 13 12 11 10 10 11 11 12 13 13 13 13 13 13 13 12 10 9 9 8 9 9 9 9 9 7 6 6 7 7 8
3 2 2 3 3 1 2 1 1 2 1 2 4 4 5 10 11 9 8 6 4 3 5 7 8 8 11 13 6 3 8 8 9 15 7 12 16 9 1 9 9 11 11 13 13 14 16 15 15 14 13 13 14 13 11 10 9 10 9 10 11 12 13 12 12 12 12 10 9 9 9 10 11 11 12 12 12 11 11 12 12 12 11 10 10 9 10 10 10 11 11 10 8 7 7 7 7
2 1 1 1 1 1 2 2 2 2 3 3 4 7 7 9 11 11 11 10 10 8 6 7 10 11 9 8 7 8 11 9 9 17 14 15 16 7 1 7 12 12 11 15 17 17 17 16 15 12 11 13 13 12 11 10 9 9 10 12 13 13 13 12 12 11 10 9 8 9 9 9 10 10 10 11 11 11 11 10 10 10 10 10 10 9 10 10 10 11 12 12 11 9 9 8 7
2 3 2 2 2 1 4 3 3 4 4 4 4 7 8 9 9 10 11 10 10 9 8 9 9 12 8 5 7 10 18 19 11 15 19 17 16 10 4 6 13 13 12 17 19 18 18 16 14 12 11 12 11 11 11 10 9 10 11 13 13 13 12 12 11 10 9 8 9 8 8 8 8 8 8 9 10 10 10 10 10 9 9 9 8 9 8 8 9 9 9 10 10 10 10 9 8
2 2 1 3 3 1 4 3 2 4 4 4 5 4 5 7 5 6 8 7 7 7 8 8 7 10 10 7 6 9 21 26 16 18 25 22 21 15 10 11 13 10 9 15 20 20 19 16 14 12 12 12 11 11 11 10 10 11 12 12 12 12 12 11 10 9 9 9 8 7 7 7 7 7 7 7 7 7 8 9 9 9 9 9 8 8 8 8 7 7 8 8 9 9 9 9 8
3 1 1 3 4 3 3 4 3 4 5 5 5 5 4 3 4 7 11 10 8 9 9 5 4 7 10 11 8 7 18 25 20 22 29 28 25 19 16 16 14 11 10 16 21 21 19 16 13 13 12 13 12 12 12 11 11 10 11 11 11 11 11 10 9 9 9 8 8 8 7 7 7 7 7 6 6 6 6 7 8 8 8 9 9 9 9 9 9 9 9 9 9 9 9 8 8
3 2 3 3 4 5 5 4 4 5 6 6 7 7 5 5 6 10 13 12 10 11 10 7 9 10 11 10 7 6 14 22 22 25 29 28 26 24 21 20 18 14 14 18 22 21 19 16 12 12 12 13 15 15 15 14 12 10 10 9 9 10 9 8 8 8 8 8 8 8 7 7 7 6 6 6 6 7 7 7 8 8 8 8 8 8 8 9 9 10 10 9 9 10 9 9 9
5 1 2 4 5 7 6 6 5 6 6 6 8 8 6 7 10 12 14 14 11 12 9 8 10 13 13 9 5 6 12 19 24 25 25 23 24 28 26 24 21 17 18 21 25 22 19 16 13 12 12 13 15 15 14 14 12 10 10 9 9 8 8 7 7 8 8 8 7 7 6 6 6 6 6 6 6 7 8 8 8 8 8 7 7 8 9 9 8 9 9 9 9 10 10 10 10
5 5 4 6 7 7 6 7 7 7 6 5 7 7 5 6 10 13 15 15 11 12 11 9 3 5 9 9 4 5 13 21 23 20 20 20 21 27 28 26 24 22 23 25 27 23 19 17 14 13 11 11 11 11 11 11 11 10 10 9 9 8 7 7 7 8 7 7 7 7 7 7 6 6 6 6 6 7 7 7 7 7 8 8 8 9 10 10 10 10 10 10 10 11 11 11 13
4 6 7 6 5 6 6 7 8 8 5 5 5 5 5 7 9 10 13 14 11 10 9 11 3 3 7 6 2 4 13 21 19 17 19 20 19 25 29 27 26 26 26 28 28 24 21 18 16 14 12 10 8 9 9 9 8 8 8 8 8 7 7 7 8 8 8 8 9 9 9 8 8 8 7 7 6 6 7 7 7 7 7 8 10 11 11 12 12 12 13 13 13 13 13 13 13
2 3 6 5 2 5 6 7 9 8 5 4 4 5 7 7 9 8 10 13 12 6 5 12 6 4 6 3 2 4 12 19 15 14 18 19 19 27 32 29 29 29 29 29 26 24 22 19 16 14 11 10 10 9 9 8 6 6 6 6 6 7 7 7 7 7 8 9 9 9 9 8 8 8 8 8 8 8 8 9 9 8 8 8 9 10 11 11 11 11 12 12 13 13 13 13 13
1 2 4 5 4 6 6 6 9 8 6 6 5 6 10 9 8 9 10 11 11 6 4 13 12 1 3 2 2 6 14 17 12 11 14 14 20 33 34 32 31 30 31 29 26 24 21 18 15 13 10 10 9 7 7 6 4 4 4 3 4 5 5 5 5 6 7 7 7 7 7 8 8 9 9 9 9 10 10 10 10 10 9 9 9 9 10 10 10 10 10 11 11 12 12 12 11
1 2 4 5 6 8 6 7 10 8 6 9 8 8 13 12 10 11 10 8 11 12 9 12 13 6 6 5 4 10 14 14 11 10 10 10 21 34 34 34 34 32 31 29 28 25 21 18 14 13 12 10 7 6 6 5 3 2 3 3 2 3 3 3 4 5 5 5 6 7 7 7 8 9 10 11 10 10 10 10 10 9 9 9 10 10 11 11 11 11 11 11 11 12 12 11 10
1 3 5 6 7 9 8 9 9 9 11 12 8 6 12 12 11 12 12 14 15 16 16 13 13 12 10 8 7 10 11 13 12 10 10 12 19 25 27 29 30 31 32 30 29 26 24 21 17 16 13 10 8 7 7 6 5 4 3 2 3 3 2 3 3 3 4 5 6 7 7 8 8 9 10 10 10 10 10 10 10 9 9 9 10 11 11 11 12 12 12 13 13 14 13 11 11
3 5 7 7 8 7 3 6 9 13 16 13 9 9 14 14 10 8 10 16 16 16 16 13 14 14 13 11 10 11 13 13 13 12 15 17 18 18 19 21 22 25 29 30 29 28 27 25 22 20 17 14 12 11 9 8 8 8 7 5 6 6 4 4 4 5 5 5 6 8 9 9 9 10 11 11 10 11 10 10 10 10 9 9 11 12 11 11 11 12 12 13 14 15 13 11 11
3 5 7 6 4 3 3 8 13 15 17 15 12 12 12 11 8 6 8 12 13 15 12 10 12 12 13 14 14 14 15 14 14 17 20 20 18 17 16 16 18 20 23 26 26 26 27 26 25 24 23 21 19 18 16 14 14 14 12 11 10 10 8 8 7 7 7 7 8 9 9 9 9 10 11 11 10 10 10 10 9 9 8 9 11 11 11 11 11 11 12 13 14 15 13 10 10
2 3 7 4 6 7 6 10 14 15 19 18 14 12 14 11 8 8 12 14 14 13 8 8 10 11 11 13 15 14 15 15 17 19 20 20 18 17 16 16 17 17 18 20 22 23 23 23 23 22 21 20 19 19 18 17 17 17 16 15 15 13 12 11 10 9 9 9 9 9 8 7 7 9 11 10 10 10 10 9 8 8 8 9 10 10 10 11 10 10 11 13 13 12 11 10 10
2 1 4 6 8 9 9 12 15 15 18 18 16 15 15 12 10 8 11 13 11 9 7 7 7 9 9 10 13 13 14 16 18 19 19 20 18 16 15 14 14 14 14 17 20 20 20 19 18 17 16 16 16 16 15 15 15 15 15 16 15 14 13 12 11 10 9 9 8 7 6 6 7 9 10 9 9 10 10 9 9 9 9 9 9 9 9 10 10 9 10 11 10 9 9 10 10
3 3 4 8 9 11 11 13 17 16 16 18 16 14 12 11 13 12 11 11 7 5 6 7 7 7 7 8 10 11 14 16 17 18 18 19 18 15 14 13 13 13 14 17 18 18 18 17 16 16 14 14 15 14 14 13 13 13 13 13 12 11 11 10 10 9 8 7 6 6 6 6 7 9 9 9 10 11 11 12 12 12 11 10 10 11 11 11 11 10 10 10 10 9 9 10 10
3 4 5 8 11 15 12 12 15 14 16 16 13 12 12 14 14 14 16 13 7 6 6 7 8 8 8 8 9 12 14 15 16 16 16 18 18 15 14 14 14 14 15 16 17 17 17 16 15 14 14 14 14 14 14 13 13 13 12 11 11 11 10 9 9 9 8 7 6 6 7 8 9 9 10 11 12 12 13 13 13 13 13 13 13 13 13 13 13 13 12 11 11 11 10 11 10
8 8 9 11 14 17 13 12 13 14 17 15 15 15 13 15 12 11 15 13 8 8 7 8 8 9 10 10 11 13 13 13 14 14 16 17 17 15 14 14 14 14 15 17 17 17 17 16 15 14 14 14 14 14 14 14 13 13 13 12 12 12 11 11 10 10 10 10 9 8 9 10 10 10 10 12 13 13 14 14 14 14 14 14 14 14 14 14 14 14 14 14 13 12 12 14 12
10 11 11 13 15 16 15 15 16 18 17 16 20 18 15 16 14 13 13 10 9 9 9 9 9 9 10 10 11 12 12 13 14 15 16 15 14 15 15 15 14 15 16 16 16 16 17 16 15 15 14 14 14 14 14 14 13 12 13 13 12 12 12 12 12 12 11 11 10 10 10 11 11 11 11 12 13 13 14 14 14 14 15 15 15 15 15 15 14 15 15 15 15 15 15 16 14
10 14 14 16 17 16 17 17 17 17 12 15 22 18 13 11 10 13 11 7 7 8 9 8 8 9 9 9 11 13 13 13 13 14 14 12 13 15 16 15 15 16 15 14 15 15 16 16 16 16 15 15 14 14 14 14 14 13 13 13 13 13 13 13 13 13 12 12 11 11 11 12 12 12 12 13 13 14 15 15 15 15 15 16 16 15 16 15 15 16 17 18 19 18 19 20 18
15 19 19 19 18 13 15 17 17 15 10 15 22 17 12 8 4 7 7 6 6 6 7 7 7 9 8 8 10 12 12 13 13 13 13 13 14 15 14 14 15 14 13 14 14 14 14 15 16 15 15 15 15 15 15 15 14 14 14 14 14 14 15 15 15 15 15 14 13 13 13 13 14 14 14 15 16 16 17 19 19 18 19 18 18 17 17 16 16 18 20 21 22 21 22 23 22
21 24 22 19 19 14 13 15 14 12 10 15 22 20 15 12 7 6 5 5 5 6 7 6 7 7 8 8 9 11 11 11 11 12 14 14 13 13 14 14 12 11 13 14 13 13 13 14 15 15 15 15 15 15 16 16 16 16 15 16 16 17 17 18 18 18 18 18 17 16 16 16 17 17 17 18 20 20 21 22 22 22 22 22 21 20 20 19 19 19 20 22 23 23 23 25 24
22 24 21 17 17 14 9 9 8 9 11 9 12 15 13 11 8 6 5 4 5 6 6 6 6 6 6 7 7 9 10 10 11 13 13 12 12 12 13 13 11 10 11 12 12 12 13 14 14 14 14 14 15 15 15 16 16 17 17 17 19 19 20 20 20 21 22 21 20 20 20 20 20 20 20 21 21 22 22 23 23 23 23 23 22 22 22 21 21 22 22 21 23 25 25 27 26
18 19 16 14 13 9 6 4 5 8 6 3 3 5 6 7 6 4 4 4 4 5 6 5 5 5 5 5 6 8 9 10 12 13 12 11 11 11 11 12 12 11 10 10 12 12 12 13 12 13 14 14 14 15 15 16 17 17 18 19 20 21 21 21 22 22 23 22 22 21 21 21 21 21 21 21 21 21 22 22 22 22 22 23 23 23 23 23 23 24 24 22 23 25 25 26 26
15 15 11 9 8 5 5 5 2 4 2 5 2 5 4 3 4 4 3 3 3 5 5 5 5 4 4 4 5 6 8 10 11 12 12 12 11 10 11 12 12 11 10 10 11 11 12 12 12 12 12 13 13 15 16 16 17 18 19 20 21 21 21 21 21 22 22 22 21 21 21 20 20 20 20 20 20 20 21 21 22 22 22 23 23 24 23 24 24 22 24 23 20 22 24 25 25
12 12 10 7 7 6 5 6 5 2 3 3 2 6 5 3 3 3 2 2 3 3 4 4 5 5 4 4 5 5 6 8 10 12 12 12 11 10 11 11 11 11 11 10 10 10 11 11 12 12 12 12 13 14 15 15 16 18 19 20 20 20 20 20 20 20 20 20 19 19 19 19 19 19 19 19 20 20 21 21 21 21 21 22 22 23 23 24 24 20 20 21 18 18 21 24 25
8 8 10 11 10 9 6 6 7 1 3 6 4 7 6 4 4 4 2 2 2 3 4 4 4 4 4 4 4 4 4 7 9 12 12 11 11 10 10 10 10 10 11 10 10 10 10 10 10 11 11 12 12 13 14 15 16 17 18 18 18 18 18 19 19 18 19 18 18 18 18 18 18 18 18 18 18 19 19 19 19 19 20 21 21 21 22 22 22 19 17 19 17 15 17 20 23
9 8 10 12 12 11 8 4 6 3 5 8 10 10 7 6 6 4 3 3 2 2 3 4 4 4 4 3 3 4 5 6 7 10 11 10 10 9 9 10 10 10 11 10 10 10 10 10 10 10 10 11 12 13 14 15 15 16 16 16 17 17 17 17 17 17 17 17 17 17 16 16 16 16 16 16 16 17 17 17 18 18 19 19 19 18 18 20 20 18 16 17 16 14 15 18 21
14 12 13 12 9 8 7 5 4 6 11 12 12 12 9 9 7 4 4 3 3 3 2 3 3 3 3 3 4 4 5 5 6 8 9 8 8 9 8 9 10 10 11 10 10 10 10 10 9 9 9 10 11 12 13 14 14 14 14 15 15 15 15 15 15 15 15 15 14 14 14 14 14 14 14 14 15 15 16 16 17 18 18 18 18 17 17 19 21 20 17 16 16 13 13 16 20
17 16 15 14 9 7 8 7 4 8 13 11 10 12 11 9 6 5 4 3 3 2 1 1 2 2 2 3 3 3 3 4 5 6 6 7 8 8 8 8 9 10 11 11 11 11 11 10 10 9 9 9 9 10 11 11 11 11 12 12 12 13 13 13 13 13 12 12 12 12 12 12 12 12 13 13 14 14 15 15 16 17 17 16 17 17 17 18 19 20 17 15 16 14 12 14 20
17 15 14 14 12 9 8 7 3 3 8 9 8 12 11 8 6 4 3 3 2 2 2 2 1 1 2 2 2 2 2 3 3 3 4 6 7 7 8 8 8 9 10 11 12 12 12 12 11 10 10 10 9 9 9 9 9 8 9 9 10 10 10 10 10 10 10 10 10 10 10 11 11 12 13 13 13 14 14 15 15 16 17 15 15 16 17 17 17 18 16 14 14 14 13 14 20
16 14 14 12 10 9 7 6 3 2 5 6 7 12 10 7 5 3 2 3 2 1 1 1 1 1 1 0 1 1 1 1 1 1 3 4 6 7 7 7 7 7 9 10 12 12 12 12 12 11 10 10 10 9 9 9 8 7 7 7 7 7 7 7 7 8 8 8 8 9 9 10 11 11 12 12 13 14 14 14 14 15 16 15 15 14 15 16 15 16 16 14 13 13 13 13 18
14 12 11 10 9 9 9 8 6 4 5 6 7 9 8 5 4 2 1 1 0 1 1 1 0 0 1 1 1 1 1 1 1 0 2 4 5 6 5 5 5 6 7 9 10 11 11 11 11 10 10 9 9 8 8 7 7 7 6 6 6 5 5 6 6 6 6 6 7 8 8 9 10 10 11 12 12 13 14 14 14 14 15 15 15 14 14 14 14 15 14 14 13 13 12 12 14
11 10 8 8 6 7 5 6 9 8 7 9 9 8 5 3 2 1 1 0 1 1 2 1 2 2 2 1 2 2 2 2 1 0 2 3 4 3 3 2 3 4 4 6 7 9 9 9 9 8 8 8 7 7 6 6 5 5 5 4 4 4 4 4 4 4 5 6 6 7 8 9 9 10 11 11 12 12 13 13 14 14 14 15 14 13 13 14 14 14 13 13 13 13 13 13 12
9 8 8 9 7 9 9 8 12 13 10 8 8 6 3 1 1 2 2 1 2 2 3 4 4 3 2 2 3 4 3 2 2 1 1 2 2 2 2 1 0 1 1 3 5 6 7 6 6 6 6 5 5 5 5 5 4 4 3 3 3 3 3 3 3 5 6 7 7 8 9 10 10 10 11 12 12 13 13 14 15 15 15 15 14 13 13 14 14 13 13 13 12 13 14 14 13
8 4 4 13 15 15 16 14 11 10 6 2 3 4 3 2 3 4 3 3 4 4 4 6 5 5 4 3 4 4 4 3 3 2 2 2 3 4 4 4 3 2 1 1 3 3 4 3 3 3 3 3 3 3 4 4 3 3 3 3 3 4 4 4 5 8 9 9 10 10 11 11 12 12 13 13 14 14 15 17 17 18 18 18 16 15 15 14 15 15 16 15 13 13 14 15 15
9 3 2 13 20 18 16 12 6 6 5 2 2 2 2 3 4 4 3 4 6 4 6 7 6 5 5 5 5 5 5 4 4 4 4 5 5 6 6 5 4 3 2 1 1 1 1 1 2 2 2 3 4 4 4 4 4 5 5 5 5 5 5 5 8 9 10 11 13 13 13 14 14 15 15 16 16 17 18 19 20 21 22 22 21 19 17 16 16 18 19 18 16 15 14 15 16
7 2 4 10 16 17 14 8 6 7 5 3 1 2 1 4 3 2 2 4 7 7 10 9 7 6 6 7 7 6 6 5 4 5 5 6 7 7 7 6 5 5 4 3 2 3 4 3 4 4 4 5 5 6 6 5 5 6 6 6 6 6 7 9 10 11 12 14 16 16 17 17 17 18 18 18 19 19 20 21 22 23 24 25 25 22 20 20 21 22 23 21 18 16 14 16 17
6 6 7 5 6 9 9 7 8 7 5 4 3 6 1 5 2 2 2 4 9 12 13 11 8 8 7 7 7 6 6 6 5 6 6 8 9 8 8 7 7 7 6 6 5 6 6 6 6 6 7 7 8 8 8 7 7 8 8 8 7 8 10 12 13 15 15 17 18 19 20 20 20 21 21 21 22 22 22 23 24 25 26 26 26 24 23 25 26 26 25 22 19 18 18 18 18
9 10 9 5 4 5 6 8 8 5 3 3 4 7 1 4 4 4 4 5 11 12 10 8 7 8 8 7 8 7 6 6 7 7 8 9 9 9 9 9 9 9 9 8 8 8 9 9 9 9 9 10 10 10 10 10 11 11 11 11 12 12 13 14 16 17 18 18 19 21 21 21 23 24 24 25 25 25 24 25 26 26 27 27 26 26 26 26 25 23 23 22 21 22 21 19 19
14 12 10 8 7 7 6 6 5 5 3 3 4 6 3 2 4 6 5 3 5 6 6 5 6 8 8 8 7 7 7 7 7 8 9 10 10 10 10 12 12 11 11 11 11 11 11 12 12 12 12 12 13 12 13 13 13 14 14 15 16 16 16 18 18 19 19 19 20 22 22 23 25 27 27 28 28 27 27 27 28 28 29 29 28 26 25 24 23 22 22 21 21 21 21 20 20
9 8 8 7 7 7 5 4 2 5 4 3 3 5 3 3 2 3 4 2 1 3 4 5 7 9 9 8 8 8 9 7 6 6 8 9 9 10 12 13 14 13 14 14 13 13 13 13 14 14 15 14 14 15 15 16 16 17 18 18 19 19 19 20 21 21 22 22 23 24 24 24 26 27 27 28 30 30 30 30 30 29 29 29 28 27 27 27 26 25 22 21 21 21 21 21 21
4 6 7 7 7 5 4 3 3 3 2 3 2 3 2 4 2 2 5 5 4 5 4 4 7 11 12 12 12 9 7 6 5 6 8 9 9 10 12 13 15 16 16 16 15 14 14 15 15 17 17 16 16 17 18 19 20 20 20 21 21 22 22 22 23 24 24 24 24 24 25 25 25 25 26 28 30 31 32 32 31 31 30 30 30 30 31 32 30 28 24 22 22 22 22 22 22
3 4 4 5 7 6 5 3 1 1 2 3 1 2 2 3 2 3 4 2 2 4 5 4 4 7 8 8 8 6 4 5 5 6 8 9 10 12 13 15 16 18 18 17 15 15 15 16 16 18 19 18 18 19 20 21 22 23 22 23 23 24 24 24 25 25 26 26 26 26 27 27 27 27 29 31 31 32 33 33 33 33 33 32 32 33 33 33 32 30 26 24 24 23 23 23 23
2 2 1 3 3 2 5 4 1 2 3 3 1 1 2 1 1 2 2 2 2 3 4 4 3 5 4 2 2 3 4 5 5 6 8 10 12 13 15 18 21 21 19 18 16 16 16 17 18 19 20 20 20 20 21 22 23 24 24 24 25 25 26 26 26 26 27 27 27 28 29 29 30 31 32 32 32 33 33 34 35 35 35 34 33 33 33 33 32 30 26 24 24 24 24 24 24
2 2 2 1 1 1 3 2 2 2 2 2 1 2 2 1 0 1 2 3 4 3 2 4 4 4 4 4 4 4 5 6 6 6 8 11 14 17 20 23 24 23 21 20 19 18 18 19 20 21 22 22 22 23 24 24 24 24 25 26 26 27 27 28 28 28 28 28 28 29 30 31 32 33 33 33 33 32 33 34 35 36 36 35 34 33 33 32 31 29 25 24 24 24 24 25 25
1 0 1 2 2 1 4 3 2 1 2 3 1 3 2 1 1 1 2 4 3 2 2 3 4 3 4 5 5 6 6 7 6 7 9 11 14 18 22 25 25 25 24 22 21 20 20 21 22 23 24 25 25 26 27 27 27 28 28 29 29 29 30 30 31 31 31 31 31 32 33 33 34 35 36 35 33 32 32 34 36 37 36 35 34 33 32 32 31 28 25 24 25 25 25 25 24
1 2 4 3 1 1 1 2 2 1 2 2 0 3 2 2 1 2 1 1 1 1 2 3 4 4 6 6 6 7 7 7 7 8 10 12 12 16 22 25 27 27 26 25 24 23 23 23 24 25 26 27 28 29 30 30 31 32 32 33 33 33 34 34 34 35 35 35 35 36 35 36 36 36 37 37 36 34 33 34 36 37 36 35 34 32 31 31 30 27 25 24 25 25 25 25 24
4 4 4 2 1 1 1 1 2 2 2 2 1 2 2 2 1 1 1 3 3 0 2 4 6 6 7 7 6 7 7 6 7 8 9 11 13 17 23 27 28 28 28 27 26 26 26 27 27 29 29 30 31 31 32 33 34 36 37 37 37 38 38 38 38 38 38 38 39 38 37 37 36 36 36 37 37 35 34 35 36 35 35 34 32 31 31 31 29 26 24 24 24 24 25 26 25
4 4 2 1 2 1 1 1 1 1 2 2 1 1 1 2 1 2 3 3 3 2 2 3 5 6 6 6 6 6 6 6 7 7 8 11 13 15 20 24 26 27 27 28 28 28 29 30 31 32 32 33 34 35 35 36 37 38 38 39 39 39 39 39 40 40 39 39 39 38 38 37 36 34 34 35 35 35 34 34 34 32 31 30 29 29 29 29 27 24 24 25 25 25 26 27 27
1 1 1 2 2 1 1 2 2 1 1 2 2 2 0 1 1 2 3 4 3 3 4 4 4 4 5 6 6 6 6 7 7 7 8 11 12 14 16 20 23 25 26 27 28 29 30 30 31 32 32 33 34 34 33 33 33 33 34 34 35 35 35 36 37 38 38 38 38 38 37 35 33 33 33 33 33 33 33 34 32 29 29 28 27 27 27 25 24 24 24 25 26 26 26 27 27
2 2 2 2 1 1 1 3 1 1 1 0 1 2 1 1 1 3 3 3 3 3 4 5 5 5 5 5 5 6 6 7 7 8 9 11 12 13 14 17 20 22 24 26 26 27 28 29 29 29 29 28 27 26 26 26 27 27 28 29 30 31 32 33 34 34 35 35 35 34 32 31 31 31 31 31 31 31 32 31 29 28 28 27 26 25 24 23 23 24 25 25 25 25 27 28 28
Wind_Direction
309 318 323 318 331 300 239 257 234 162 245 162 114 131 105 28 353 122 119 129 102 58 50 65 58 54 73 90 92 78 48 38 28 351 70 24 0 26 340 14 135 162 154 134 122 116 113 114 110 113 118 109 106 114 119 117 116 114 110 107 104 104 100 97 95 96 97 93 89 86 83 81 80 74 66 60 49 40 35 40 49 53 56 60 58 55 49 45 44 39 37 28 20 8 2 10 12
309 316 325 322 326 283 207 251 251 170 200 154 121 56 75 101 118 85 85 89 98 98 80 74 75 72 84 92 90 82 51 43 32 14 54 4 355 8 3 41 134 136 151 135 116 113 113 112 113 116 113 106 111 116 117 116 117 114 107 105 102 103 102 100 100 98 97 91 86 84 79 73 68 62 60 61 58 55 51 48 46 44 47 54 53 45 39 29 25 21 19 13 7 1 353 353 359
307 318 334 313 273 273 202 224 248 183 190 163 119 55 58 130 99 83 84 91 102 106 82 84 78 59 88 86 60 70 53 37 31 14 23 11 353 327 354 120 129 125 136 129 117 116 116 115 118 120 119 116 117 117 115 116 115 108 100 100 101 101 103 104 102 98 94 89 85 78 70 69 69 71 73 71 66 60 56 54 50 48 46 45 42 38 36 28 18 12 15 9 2 3 347 340 344
300 321 339 298 237 214 228 225 254 216 191 151 117 80 82 112 101 92 84 82 104 124 92 94 74 34 66 72 48 78 34 358 36 20 14 11 352 327 353 139 135 133 133 122 118 113 111 113 118 119 121 120 119 118 113 112 105 95 89 92 98 100 102 102 100 97 93 87 78 67 65 70 71 73 73 72 68 61 56 53 51 49 48 48 47 39 30 28 23 16 18 10 356 355 341 334 337
282 321 2 285 243 209 245 233 262 233 171 106 119 104 99 111 106 100 87 76 86 95 111 101 90 70 63 57 26 60 348 312 30 20 12 5 1 348 84 144 149 150 138 123 117 106 105 105 110 113 117 119 117 116 109 106 98 89 88 93 98 101 102 99 97 95 91 82 68 64 67 67 64 63 63 65 65 62 58 54 52 49 46 47 47 39 28 26 25 21 21 18 7 354 339 329 327
257 234 53 293 265 329 240 203 188 134 42 17 103 113 112 113 108 107 101 87 78 72 95 99 107 105 81 70 56 43 357 342 19 13 12 8 15 25 11 138 140 138 128 121 115 105 105 102 103 103 103 109 109 107 103 101 95 87 90 98 99 99 99 93 90 87 81 70 63 66 65 60 56 54 51 50 51 52 53 51 49 47 45 43 40 37 31 29 28 24 23 22 19 10 357 343 332
242 207 156 168 147 266 237 198 157 115 51 6 79 112 120 117 115 118 112 93 81 63 65 82 109 112 79 79 77 31 16 21 14 10 24 24 34 59 56 107 122 120 124 125 121 114 111 109 108 107 102 101 100 97 94 91 90 87 91 96 97 95 90 84 82 78 70 60 61 64 59 56 52 50 46 41 39 36 35 35 35 36 37 36 34 30 26 27 25 21 20 18 16 14 10 2 351
225 212 172 215 174 207 237 170 114 98 79 40 54 81 104 119 123 110 104 90 87 70 67 86 94 96 69 56 72 17 16 22 12 17 37 42 43 67 94 104 113 115 131 128 122 117 115 119 116 114 110 102 99 94 88 87 88 87 90 92 92 88 82 80 77 70 64 57 58 61 55 50 46 43 40 37 35 28 25 23 19 17 17 18 16 11 6 7 6 3 3 359 356 355 357 357 354
204 232 189 217 187 186 216 151 105 88 94 75 56 48 65 117 132 100 100 91 92 81 60 78 84 93 90 72 69 23 11 11 11 28 44 46 43 64 91 96 100 99 114 119 116 115 118 124 118 110 103 99 100 95 86 85 88 86 86 86 85 84 79 75 70 64 62 60 61 62 55 47 45 42 37 32 28 23 19 15 9 5 1 0 357 352 350 347 343 343 344 342 341 338 337 338 339
185 244 198 196 193 187 195 156 127 105 94 80 63 51 72 114 117 101 103 97 96 91 50 45 83 93 94 73 59 32 3 1 13 33 44 40 41 63 78 84 94 96 101 110 113 116 121 122 118 110 100 100 102 97 91 86 84 81 80 79 79 78 74 69 66 65 62 62 61 60 55 49 45 39 37 31 24 16 12 10 4 358 351 347 343 339 338 334 331 333 333 332 331 329 327 324 325
181 208 217 193 192 195 196 160 136 112 99 93 75 51 66 106 106 100 104 101 94 89 42 25 83 88 85 73 48 17 1 6 16 29 40 35 40 62 71 74 84 90 87 97 107 111 118 115 108 102 94 94 94 93 92 87 83 81 84 82 80 77 75 72 66 64 59 57 57 55 49 45 40 33 30 24 21 18 17 16 10 3 354 345 337 331 326 319 315 316 315 314 315 313 312 309 308
190 169 189 204 198 197 187 154 137 121 105 87 81 47 48 98 105 108 108 108 103 86 40 6 59 86 82 79 40 358 8 12 18 28 41 42 42 58 69 72 74 82 82 92 103 103 108 110 103 98 93 89 83 83 85 83 83 85 89 89 88 84 80 77 72 71 68 68 69 66 58 51 46 40 37 32 28 27 27 21 12 5 354 346 339 333 327 324 320 318 317 314 312 306 307 306 302
205 172 185 201 198 192 169 142 139 133 111 75 78 40 45 81 87 103 106 97 87 83 38 352 315 104 84 94 24 355 7 7 20 36 48 52 47 58 70 73 72 75 79 89 95 91 97 100 95 92 86 82 72 72 75 74 79 82 87 92 91 87 85 86 86 86 83 80 74 69 65 59 54 47 44 40 36 32 29 24 15 6 355 352 348 344 341 339 336 333 333 329 324 321 323 323 319
224 179 195 190 179 198 166 141 152 147 129 103 88 55 63 66 66 84 94 86 61 61 62 8 352 113 81 98 50 8 350 356 18 42 55 56 50 64 70 70 71 72 75 84 86 83 90 91 89 86 77 79 76 72 69 65 72 77 79 87 89 88 94 98 99 95 85 76 66 61 58 53 47 39 36 32 28 25 26 27 25 24 20 16 11 2 354 346 338 333 333 331 326 326 326 329 332
285 188 210 192 173 193 180 160 161 143 131 125 107 93 81 59 59 63 55 81 60 29 98 25 6 84 54 49 58 341 328 344 7 38 55 52 54 67 67 65 68 68 70 76 80 81 86 89 94 92 86 93 92 80 67 53 46 56 67 70 92 101 104 110 103 94 82 69 58 49 44 37 29 23 22 20 17 15 15 19 22 31 36 35 32 22 10 1 350 340 334 330 325 323 322 326 333
308 207 201 197 189 196 187 166 158 136 138 135 125 110 88 63 58 62 44 83 80 47 62 36 24 58 56 50 13 326 329 347 360 28 49 49 58 64 63 62 64 65 66 70 74 77 81 88 96 93 93 104 103 92 84 80 66 71 77 40 77 109 99 105 96 86 80 63 46 35 30 25 21 18 16 12 8 4 2 3 6 13 23 25 22 17 14 12 8 3 357 347 339 331 324 327 329
269 211 195 199 198 194 178 171 167 137 139 141 142 129 103 92 75 78 66 72 82 65 63 57 53 61 56 45 5 342 350 358 358 22 48 52 55 55 53 53 56 59 62 65 69 74 76 79 89 97 103 111 108 99 98 113 125 120 109 70 95 125 110 101 93 74 70 53 37 26 23 18 17 15 9 3 355 349 344 343 343 343 350 357 356 355 359 2 5 7 6 1 356 349 340 335 331
199 197 194 203 194 189 178 156 145 125 134 141 140 126 114 113 100 98 76 66 76 76 68 66 65 57 50 38 17 10 10 6 12 37 52 52 50 47 44 41 43 48 53 59 64 69 71 70 79 91 100 106 101 92 92 105 111 104 100 98 100 105 97 86 71 57 52 44 33 26 23 16 17 15 6 1 353 344 336 331 330 328 329 332 330 332 337 343 351 352 352 353 352 354 355 350 341
207 194 192 206 160 120 33 119 126 125 134 129 119 115 104 104 103 96 85 74 70 72 59 50 56 41 34 24 13 15 12 18 33 47 54 54 51 48 45 39 36 37 40 48 54 60 65 67 72 79 86 88 85 82 81 84 86 86 85 83 82 80 75 66 56 51 43 34 28 25 23 14 14 8 359 357 354 347 341 336 330 325 321 317 314 318 321 324 336 339 336 337 339 345 350 345 341
210 209 195 167 98 86 65 112 121 126 129 119 112 100 82 80 92 103 102 84 60 59 41 24 36 19 15 11 8 14 15 27 40 47 54 55 53 50 46 40 35 31 30 38 45 51 57 64 69 71 75 76 75 74 73 73 72 74 73 71 69 66 62 56 51 47 39 34 28 25 23 12 7 0 355 353 350 346 346 344 337 331 323 315 312 317 318 318 328 331 328 330 331 334 335 332 332
147 233 184 126 107 91 80 107 112 117 119 115 113 97 83 70 65 92 114 94 61 49 37 28 32 14 10 6 7 18 25 33 40 46 51 53 53 50 47 42 38 33 31 38 40 43 50 58 66 69 71 74 76 74 73 72 71 71 70 65 61 56 54 52 49 45 38 34 26 21 17 9 10 8 5 5 6 4 4 5 1 358 351 341 336 338 336 334 338 337 333 332 329 327 325 324 322
101 59 86 112 114 98 94 108 108 113 114 109 105 92 91 76 52 54 76 86 72 45 42 39 35 24 19 12 13 26 34 37 40 45 49 51 51 48 47 44 40 37 38 40 36 41 48 53 63 69 70 74 77 78 80 82 82 78 74 70 64 56 53 50 48 44 36 30 24 24 23 21 23 22 19 22 26 25 26 25 21 18 14 11 9 6 3 358 358 357 352 348 342 336 331 328 323
114 83 77 106 110 106 110 107 106 114 108 102 98 95 100 90 68 53 60 70 70 56 53 47 39 35 34 28 29 36 39 42 44 46 49 50 47 42 41 41 38 36 39 43 43 46 50 51 56 64 68 71 73 76 80 83 82 79 76 75 73 67 60 56 53 48 43 38 36 38 39 36 33 32 29 31 33 31 33 31 25 22 20 20 20 18 17 11 7 9 11 6 0 356 349 346 342
107 104 90 98 102 106 113 104 101 100 96 97 99 95 88 87 85 64 60 60 55 56 53 50 49 43 42 40 39 43 44 47 51 52 52 51 46 41 40 40 38 37 41 47 48 46 47 46 47 58 69 71 73 74 76 75 74 74 73 70 69 67 63 60 57 55 53 48 44 45 47 44 40 39 37 35 34 33 34 32 27 24 22 22 23 21 21 17 11 14 17 11 8 8 2 358 358
100 112 103 97 96 102 106 100 99 95 96 98 90 83 80 87 86 68 61 54 48 50 46 46 53 52 46 43 43 44 46 49 52 54 53 50 46 46 44 42 41 41 40 40 42 40 39 39 43 57 67 70 73 74 75 74 71 71 70 67 66 65 63 63 60 58 57 53 50 49 51 52 47 46 45 38 35 35 34 33 29 25 25 26 26 22 20 17 13 18 18 13 13 14 7 5 6
112 117 111 103 100 104 108 102 101 101 105 103 90 85 86 88 80 65 56 51 54 52 47 38 46 57 49 43 45 44 45 45 47 52 54 50 46 47 45 42 43 42 38 36 37 37 36 38 47 58 66 70 71 73 75 73 72 71 71 71 70 68 68 66 64 61 59 58 56 54 56 57 54 52 51 44 38 38 36 35 34 29 29 30 30 26 24 19 15 22 23 21 21 19 15 13 12
119 114 105 101 100 101 104 105 107 100 94 100 96 87 69 59 73 73 55 51 64 66 57 37 39 56 49 45 47 45 46 43 46 52 53 48 43 42 41 40 42 42 40 39 37 36 37 41 48 54 63 68 67 72 76 75 75 76 76 78 76 75 72 69 67 64 62 60 59 58 58 59 58 55 54 51 46 46 45 43 41 39 38 36 36 35 33 29 25 28 28 25 25 22 19 17 17
120 110 98 95 98 94 95 104 110 102 96 99 97 85 53 41 63 77 73 65 64 74 68 43 37 49 51 48 48 47 45 42 45 51 49 46 41 38 38 35 36 41 41 39 36 36 41 46 47 47 54 62 64 69 74 75 77 78 79 80 79 77 75 74 71 68 65 63 62 62 60 60 61 58 57 58 56 54 53 51 49 47 46 43 42 41 39 36 31 30 28 25 24 22 19 18 18
120 110 104 104 100 88 76 94 109 117 121 113 96 83 45 36 65 74 84 85 70 75 70 54 39 40 51 49 48 49 44 42 46 49 48 47 45 41 39 34 32 40 41 38 37 37 45 51 48 45 50 60 69 71 72 75 76 78 79 79 79 78 76 75 73 72 70 67 66 66 65 65 65 64 63 62 60 58 55 54 52 50 48 45 43 41 39 36 31 28 25 21 20 19 17 16 16
119 111 114 118 105 78 37 60 113 120 117 299 284 106 58 45 71 75 83 93 82 75 65 58 49 42 49 50 52 50 42 41 45 46 45 45 46 42 40 36 34 41 40 38 39 38 47 55 49 45 48 57 72 76 76 78 78 80 80 79 80 79 78 76 75 75 73 70 68 67 67 67 66 66 64 62 60 58 55 53 51 49 47 44 41 39 37 34 31 27 23 20 15 16 14 12 12
124 116 123 126 115 99 35 20 77 119 67 307 264 128 112 79 74 79 83 89 86 78 69 58 54 48 44 48 54 52 42 39 43 45 42 42 42 39 39 37 36 42 41 39 43 45 53 63 61 54 50 55 68 78 82 81 81 83 83 82 82 80 79 77 76 75 74 72 69 67 66 65 65 64 62 61 58 56 53 50 48 45 43 40 37 36 34 31 30 26 22 19 12 11 11 9 8
137 130 138 138 121 121 83 28 6 105 85 3 70 112 115 117 106 102 95 104 97 79 77 68 57 46 38 45 48 52 48 42 43 42 39 38 36 34 35 35 36 41 44 46 52 56 60 71 75 71 65 62 66 77 83 83 82 84 84 84 83 83 80 78 78 77 75 73 70 68 66 63 61 59 58 57 54 52 50 46 42 40 37 35 33 31 30 28 27 24 20 18 11 5 5 5 5
156 151 147 142 133 137 126 47 5 4 84 26 66 128 125 125 131 118 99 117 113 89 81 73 61 45 38 43 42 48 48 43 41 35 33 33 31 32 35 37 39 44 50 56 62 63 65 72 77 78 78 77 77 83 86 86 87 87 86 86 84 83 81 79 78 76 74 72 70 67 64 61 57 54 53 50 49 47 44 42 37 34 32 30 29 28 27 26 25 20 14 14 10 1 359 359 358
159 153 142 137 133 139 144 91 25 29 101 75 90 112 114 122 132 118 100 105 98 87 76 63 59 48 38 39 40 42 42 40 36 29 28 28 28 31 35 43 49 55 59 64 70 70 70 74 76 78 82 85 86 89 89 88 89 89 88 87 85 83 81 80 77 74 72 69 66 63 60 58 54 51 49 47 46 43 40 38 32 30 30 28 27 26 23 22 23 19 11 9 8 360 357 355 351
154 150 142 132 120 117 119 101 52 80 99 96 98 104 112 122 127 120 112 112 101 79 61 57 56 53 44 37 37 35 38 40 33 26 25 27 29 29 34 43 52 59 63 69 79 81 80 81 81 84 86 87 88 91 92 91 90 89 88 86 84 83 80 79 76 73 71 68 65 61 59 57 53 50 47 45 44 41 38 34 30 29 28 26 24 22 19 17 17 16 10 7 5 360 356 353 350
144 143 139 131 109 85 91 96 76 87 90 84 99 114 125 130 129 132 123 117 114 102 90 68 40 47 46 36 37 33 36 39 29 23 25 32 34 35 40 44 47 57 66 74 82 86 88 88 87 88 89 91 93 94 93 91 89 85 83 81 80 81 80 78 76 75 73 70 67 62 60 56 52 48 43 41 38 36 34 29 26 24 24 23 19 18 16 12 11 10 5 360 357 356 353 353 353
120 118 117 112 103 92 97 104 63 43 75 67 93 115 122 126 124 130 133 141 138 137 143 104 59 50 46 37 35 31 37 31 11 18 35 40 40 40 47 50 50 57 68 75 81 85 88 87 87 86 83 84 85 85 85 84 84 80 80 81 81 82 80 77 74 75 73 69 65 60 55 49 44 39 35 33 29 28 25 20 18 16 16 15 12 11 9 7 6 4 0 354 351 350 348 351 354
101 102 109 99 96 95 84 85 52 33 94 90 108 111 106 109 116 123 146 173 164 120 161 112 101 84 58 25 4 15 27 358 323 11 46 48 45 43 48 54 54 58 67 76 81 82 81 79 77 75 72 71 70 71 72 72 74 75 79 82 83 83 81 79 76 73 69 61 52 45 41 35 31 27 24 22 19 18 16 12 9 6 6 4 1 359 358 359 357 357 357 351 346 344 340 344 352
96 101 111 101 106 105 76 58 56 61 103 121 131 113 98 93 97 111 149 203 138 75 296 315 169 201 187 231 274 282 261 256 253 316 56 48 44 41 41 47 57 68 76 80 84 82 79 75 72 71 69 67 66 65 65 66 64 66 75 82 82 81 77 76 70 62 54 41 31 25 22 19 17 14 11 10 8 6 4 1 358 355 354 353 350 346 345 348 348 349 350 345 340 336 332 336 345
109 115 117 115 129 122 86 61 69 67 86 126 135 108 91 96 92 155 174 267 269 213 232 238 253 248 227 249 270 259 252 238 236 298 39 37 32 26 24 31 62 81 85 84 86 83 79 76 73 72 69 66 62 58 58 57 50 49 53 58 62 62 52 47 43 32 20 14 8 2 0 360 359 357 354 354 353 352 350 348 346 343 341 341 339 333 332 334 336 337 339 337 333 329 326 327 331
108 112 121 127 118 97 102 112 97 83 79 108 126 109 103 146 174 194 164 199 246 223 225 230 227 229 233 251 259 256 261 267 274 300 3 2 342 317 307 281 257 110 101 86 84 79 76 73 69 68 63 60 57 50 48 44 38 34 25 16 15 12 4 4 355 342 343 345 341 338 340 339 338 337 337 337 336 336 335 333 333 331 330 330 328 323 320 321 323 324 326 326 323 322 318 317 319
103 66 107 127 118 107 119 131 117 98 90 83 122 139 161 173 211 216 185 216 239 222 234 242 226 215 222 231 239 244 248 250 255 268 281 279 271 265 256 243 238 228 223 84 76 69 68 63 51 50 41 30 25 25 28 23 15 6 357 342 331 332 330 329 325 324 326 326 323 324 324 323 323 324 324 324 324 324 325 324 324 324 323 322 320 317 313 311 313 314 317 317 312 312 309 307 310
118 24 70 130 126 124 139 150 131 107 116 139 197 192 154 160 217 217 190 244 255 239 237 239 225 216 218 223 224 224 226 224 229 240 246 249 251 251 245 240 239 237 243 269 56 24 352 349 343 347 344 338 340 342 345 347 340 332 333 329 324 323 316 311 314 315 314 315 315 316 315 314 314 314 315 315 315 316 317 317 318 318 318 317 316 313 309 306 306 308 311 309 305 304 301 299 302
115 97 137 139 129 133 153 156 116 107 113 137 237 321 139 169 209 162 130 258 261 252 241 229 215 215 219 224 221 216 220 219 219 226 231 238 244 245 247 247 249 251 257 263 273 282 285 284 290 302 306 308 310 312 313 314 314 313 317 318 315 311 307 306 309 310 310 311 312 311 310 310 310 309 309 309 310 310 311 312 312 313 313 312 311 309 305 304 303 304 306 305 301 298 294 293 295
101 121 121 113 105 136 153 121 105 127 137 123 10 344 205 165 139 117 146 238 242 239 234 222 208 211 217 222 223 219 221 221 224 230 230 237 241 242 248 252 254 259 262 266 273 276 277 276 280 287 288 290 291 295 299 300 303 305 308 309 304 300 303 306 307 307 307 307 307 307 307 308 309 310 310 310 309 309 310 310 309 309 309 309 308 305 303 304 304 303 303 301 298 294 292 290 289
119 120 106 110 98 101 117 105 112 148 156 106 19 346 270 169 149 162 182 230 235 230 227 221 205 206 215 221 221 217 217 222 224 229 234 238 242 245 251 257 260 263 265 266 268 268 270 272 276 279 280 284 286 289 294 296 300 302 301 301 299 298 299 300 301 301 301 302 301 303 304 305 306 308 309 308 307 307 307 308 307 307 308 307 306 304 304 303 302 300 298 297 295 294 292 287 284
133 131 120 128 113 85 80 87 112 157 159 92 27 347 319 197 167 178 193 219 233 225 219 214 200 203 214 221 223 218 217 219 216 223 236 242 248 253 258 262 262 261 262 263 262 262 265 269 272 274 276 279 283 287 289 291 293 294 293 293 293 294 293 293 294 295 296 297 297 299 300 301 303 305 306 305 305 305 305 305 305 305 307 307 307 305 303 301 299 297 295 294 292 290 288 286 283
139 147 130 112 101 97 92 82 144 183 175 91 39 342 307 237 177 166 200 194 181 232 219 206 203 201 204 215 223 220 218 217 211 223 238 245 251 255 256 258 259 258 257 257 259 261 264 268 270 274 276 277 280 283 285 286 286 286 286 286 286 287 287 286 287 289 292 293 294 295 296 296 299 301 302 303 305 307 308 306 305 306 306 306 306 305 303 303 302 300 295 292 290 288 287 285 283
151 154 133 112 118 127 126 133 176 189 142 73 28 339 282 254 274 144 198 210 215 232 228 220 213 201 198 206 214 212 209 209 211 228 236 240 246 248 249 250 253 255 254 255 259 262 266 270 272 275 278 279 279 279 281 281 281 281 281 281 281 282 282 282 282 285 288 289 288 289 291 292 293 295 298 301 305 308 308 306 305 305 304 304 305 305 305 305 304 301 296 292 290 288 287 284 282
139 142 124 123 137 145 149 151 181 181 105 67 5 322 248 258 281 148 170 185 226 252 250 256 252 225 211 209 211 203 195 206 217 229 233 236 241 244 247 249 251 254 255 256 259 262 266 270 272 274 278 280 278 276 276 277 277 279 279 278 278 277 277 279 280 282 285 286 286 287 289 291 291 293 297 300 305 308 307 305 303 302 302 303 304 305 306 306 305 302 298 293 290 289 287 284 282
67 5 2 128 137 145 155 160 149 138 111 84 84 256 236 238 56 90 87 46 329 294 272 265 278 275 276 287 256 213 210 220 223 230 236 239 242 245 249 252 254 255 256 258 260 263 266 269 271 273 276 278 277 276 275 275 276 277 278 277 275 274 274 275 277 279 282 284 285 286 288 291 291 293 297 300 304 307 307 307 305 303 302 302 303 305 306 306 305 302 297 293 290 288 286 284 282
79 318 311 94 16 25 118 109 58 94 112 119 170 258 271 269 29 19 339 300 277 277 268 248 243 257 272 270 253 234 229 230 225 231 239 241 243 247 251 253 256 257 258 258 259 261 264 268 272 272 274 277 278 277 276 276 278 278 278 277 276 275 275 275 276 278 281 283 285 286 287 289 291 293 295 298 302 306 308 309 307 304 303 303 303 305 306 305 304 301 295 291 289 287 285 283 282
150 219 45 60 351 47 115 99 37 302 195 137 205 263 254 250 213 231 285 286 276 262 253 242 231 230 242 247 242 234 234 233 230 235 239 241 244 248 252 254 257 258 259 259 260 263 266 270 273 273 275 277 277 277 278 279 280 280 279 279 278 278 277 277 278 279 282 284 284 285 286 288 291 293 295 297 299 303 307 309 307 305 303 302 302 303 305 306 305 300 293 290 290 289 287 284 283
235 126 112 115 8 3 112 121 122 218 197 113 310 269 279 286 186 146 211 359 13 255 263 258 245 237 237 242 240 235 237 239 242 245 245 248 247 249 254 256 258 259 260 261 263 266 269 271 273 274 275 276 277 280 281 282 283 282 282 283 282 283 282 282 282 282 283 284 284 286 288 289 292 295 297 297 298 300 305 309 307 305 304 301 300 302 304 306 304 298 293 290 290 289 288 286 285
42 96 116 162 192 122 116 122 144 168 151 117 216 266 277 257 221 62 4 14 23 276 245 246 241 240 237 242 245 243 247 246 248 250 248 248 247 250 256 258 260 262 263 265 266 268 270 272 274 275 276 278 279 280 282 283 284 284 285 286 286 286 286 285 285 285 284 284 285 287 288 290 294 299 301 301 300 299 303 309 308 306 304 301 299 300 303 305 302 295 291 291 291 291 289 289 289
68 105 113 315 350 38 90 55 295 188 142 134 149 239 241 201 201 310 304 324 334 307 283 256 247 248 246 248 250 248 250 248 247 249 248 250 251 254 258 261 263 265 266 268 269 270 272 273 274 276 278 280 281 282 283 285 286 287 288 289 289 289 289 288 288 287 286 285 287 288 291 294 297 301 305 306 304 302 304 309 309 305 304 301 298 299 301 301 297 291 291 292 293 293 291 290 290
20 96 85 90 63 345 117 89 6 356 152 157 131 138 101 85 156 254 290 315 319 302 292 286 277 267 253 250 250 248 250 249 250 252 255 259 261 261 264 267 271 273 274 275 275 275 276 277 279 281 283 285 287 288 290 292 294 295 295 295 295 295 294 292 291 290 289 289 290 292 295 298 300 304 308 309 308 307 307 309 308 305 303 300 298 298 299 297 294 292 293 293 294 293 291 290 290
337 347 9 45 70 237 158 107 84 359 8 268 111 127 113 67 153 226 281 303 294 284 281 282 283 278 271 264 255 255 259 260 262 267 268 269 271 271 272 274 277 278 279 281 281 282 283 285 287 289 290 292 295 298 300 301 302 301 300 300 300 298 297 296 295 295 294 295 296 298 301 303 304 308 311 311 311 309 309 310 308 306 304 301 298 297 297 295 293 293 295 294 294 293 291 290 289